OBJECT AU, 67290

Orbit data source: Space-Track

You're viewing an Uncataloged Satellite

Recently launched and/or uncataloged satellites may have evolving metadata. Metadata may include but not limited to: Owner, Maufacturer, Bus, Motor, and Mission.

OBJECT AU, 67290 is a satellite in SSO that was launched on Sun, 28 Dec 2025 UTC via a SOYUZ-2-1B launch vehicle from the Vostochny Cosmodrome (VOSTO). Unknown objects in Earth's orbit typically refer to objects detected orbiting the Earth but have not yet been identified or cataloged. These objects could be anything from previously untracked satellites, spent rocket stages, debris from satellite collisions, or even natural meteoroids temporarily captured by Earth's gravity.

Loading next visibility...
Identifier
67290, 2025-313AU
Orbit
SSO
Country
Flag of TBDTBD
Related business
Manufacturer
YKSA
Mission
Operational Commercial Technology
Bus & Motor
CUBESAT 1U, Unknown motor
Mass
1 kg wet, 1 kg dry
Launch date (UTC)
2025-12-28 (6 months ago)
Launch vehicle
SOYUZ-2-1B
Launch site
Vostochny Cosmodrome (VOSTO)
Object type
Unknown
Shape & HBR
Box, 0.1 m
Radar Cross Section
0.015 m², Medium (>0.1 m² and < 1m²)

Expand to show TLE details & history
Last TLE update: 1 day ago

TLE from 1 day ago
0 OBJECT AU
1 67290U 25313AU  26170.45696629  .00007736  00000-0  31324-3 0  9990
2 67290  97.3931 245.4637 0008608 357.2855   2.8334 15.24922033 26320
Epoch: 2026-06-19T10:58Z
TLE epoch observation values (Epoch: 2026-06-19T10:58:01.887Z)
Latitude
-0.00008°
Longitude
173.27018°
Altitude
488.21 km
Speed
7.624 km/s
True Right ascension
16h 21m 51s
True Declination
0° 00' 00"
Sunlit
Object was in full shadow at epoch
Visualization orbit readout
Latitude
Unknown
Longitude
Unknown
Altitude
Unknown
Speed
Unknown
Apparent Right ascension
Unknown
Apparent Declination
Unknown
Sunlit
N/A
Visualization observer readout
Local Sidereal Time
07:13:24
Azimuth
Unknown
Elevation
Unknown
Doppler factor
Unknown
Orbital elements
Apogee altitude
493.889 km
Perigee altitude
482.068 km
Semi-major axis
6,866.115 km
Eccentricity
0.00086
Inclination
97.3931°
RAAN
245.4637°
Arg. of periapsis
357.2855°
True anomaly
2.83828°
Mean anomaly
2.8334°
Eccentric anomaly
2.83584°
Mean motion
3.81484 °/min
Orbital period
94.37 mins
BSTAR
0.00031324
Loading maneuver chart data...
Computing Atmospheric mass density...
Loading historical data...
Loading historical data...
Loading historical data...
Loading historical data...
Loading historical data...
Loading historical data...
Loading historical data...

Documentation

Showing up to 5 results
|